CDT,Max TemperatureF,Mean TemperatureF,Min TemperatureF,Max Dew PointF,MeanDew PointF,Min DewpointF,Max Humidity, Mean Humidity, Min Humidity, Max Sea Level PressureIn, Mean Sea Level PressureIn, Min Sea Level PressureIn, Max VisibilityMiles, Mean VisibilityMiles, Min VisibilityMiles, Max Wind SpeedMPH, Mean Wind SpeedMPH, Max Gust SpeedMPH,PrecipitationIn, CloudCover, Events, WindDirDegrees
2012-9-1,89,84,78,79,76,73,89,76,62,30.17,30.12,30.08,10,9,6,12,6,,0.00,5,,184
2012-9-2,91,84,78,77,75,69,90,78,53,30.12,30.05,29.99,10,10,7,10,4,,0.00,4,,217
2012-9-3,91,84,77,76,74,71,90,74,52,30.06,30.01,29.95,10,10,9,9,4,,0.00,3,,238
2012-9-4,91,85,79,76,73,70,90,69,48,30.00,29.95,29.89,10,10,8,10,6,18,0.00,6,,248
2012-9-5,91,84,78,76,74,72,90,72,53,29.93,29.88,29.83,10,10,10,9,6,16,0.00,5,Thunderstorm,281
2012-9-6,91,86,80,76,74,72,85,72,55,29.95,29.90,29.87,10,10,10,12,5,,0.00,5,,50
2012-9-7,89,82,75,75,73,71,94,72,57,29.94,29.88,29.83,10,10,10,12,6,,0.00,3,,85
2012-9-8,93,84,75,74,72,69,94,70,47,29.94,29.86,29.79,10,9,6,10,4,21,0.01,5,Rain-Thunderstorm,330
2012-9-9,84,75,66,66,60,54,84,58,37,30.05,30.01,29.94,10,10,10,12,7,16,0.00,4,,22
2012-9-10,84,73,64,64,59,55,90,60,38,30.11,30.08,30.05,10,10,9,12,4,17,0.00,4,,65
2012-9-11,87,75,64,69,65,62,93,71,44,30.14,30.10,30.06,10,9,5,15,4,20,0.00,4,Fog,78
2012-9-12,88,78,69,74,70,66,94,76,53,30.15,30.10,30.06,10,9,2,14,5,20,0.00,4,Fog-Rain,104
2012-9-13,89,80,73,74,71,69,91,76,57,30.15,30.11,30.08,10,9,2,15,8,22,0.03,3,Fog-Rain-Thunderstorm,90
2012-9-14,87,79,71,72,68,62,93,74,43,30.15,30.11,30.07,10,10,5,14,5,21,0.00,3,,57
2012-9-15,89,79,69,71,68,66,93,74,46,30.12,30.08,30.04,10,9,6,12,3,16,0.00,3,,60
2012-9-16,88,80,73,74,72,67,93,78,53,30.04,29.99,29.94,10,10,9,17,4,18,0.00,4,Rain,88
2012-9-17,81,76,73,75,73,70,94,87,74,29.93,29.81,29.71,10,7,0,22,6,30,0.95,6,Fog-Rain-Thunderstorm,174
2012-9-18,84,78,71,71,67,63,94,75,51,30.01,29.87,29.79,10,10,7,13,6,22,0.00,4,Fog,310
2012-9-19,81,73,66,64,61,59,87,70,50,30.09,30.05,30.00,10,10,10,9,6,,0.00,1,,37
2012-9-20,82,74,66,65,62,60,90,69,49,30.09,30.05,30.00,10,10,7,9,4,,0.00,3,,57
2012-9-21,84,75,66,70,67,63,94,77,56,30.05,30.01,29.97,10,9,5,9,3,,0.00,3,Fog,81
2012-9-22,89,78,66,72,66,58,94,74,35,30.11,30.06,30.01,10,8,2,6,1,,0.00,1,,53
2012-9-23,90,78,68,73,68,65,94,73,46,30.17,30.13,30.10,10,8,2,8,2,,0.00,1,,136
2012-9-24,90,80,69,72,69,66,93,75,46,30.17,30.13,30.07,10,6,1,9,2,,0.00,2,,55
2012-9-25,86,76,66,69,66,62,94,73,51,30.13,30.10,30.06,10,8,2,13,3,,0.00,3,Fog,105
2012-9-26,88,75,64,71,67,63,94,69,49,30.12,30.08,30.05,10,10,6,13,4,,0.00,2,,90
2012-9-27,105,82,71,73,70,64,82,69,48,30.14,30.09,30.04,10,9,1,15,3,21,0.00,4,Fog-Thunderstorm,112
2012-9-28,102,86,75,76,72,70,85,75,49,30.08,30.04,29.99,10,8,1,12,2,17,0.00,5,Rain-Thunderstorm,100
2012-9-29,93,82,75,74,72,71,94,81,57,30.00,29.93,29.86,10,8,4,12,4,,0.00,7,Rain,148
2012-9-30,93,84,75,77,74,72,98,80,55,29.84,29.69,29.57,10,9,5,17,8,29,0.00,6,Rain,178